| time (UTC) | temp F | wind direction | speed MPH | gust MPH | rain 1hr in | rain 24hr in | rain mn in | humidity % | barometer mb |
| 20260509131851 | 56 | 127 | 0.0 | 2.0 | 0.02 | 0.03 | 0.03 | 88 | 1009.9 |
| 20260509131334 | 57 | 118 | 1.0 | 3.0 | 0.02 | 0.03 | 0.03 | 87 | 1009.9 |
| 20260509130839 | 57 | 118 | 1.0 | 3.0 | 0.02 | 0.03 | 0.03 | 87 | 1009.9 |
| 20260509130343 | 56 | 28 | 0.0 | 1.0 | 0.02 | 0.03 | 0.03 | 86 | 1010.0 |
| 20260509125828 | 56 | 28 | 0.0 | 3.0 | 0.02 | 0.03 | 0.03 | 86 | 1010.0 |
| 20260509125330 | 56 | 28 | 1.0 | 3.0 | 0.02 | 0.02 | 0.02 | 85 | 1010.0 |
| 20260509124838 | 56 | 28 | 0.0 | 2.0 | 0.02 | 0.02 | 0.02 | 85 | 1009.8 |
| 20260509124403 | 56 | 28 | 1.0 | 3.0 | 0.02 | 0.02 | 0.02 | 84 | 1009.8 |
| 20260509123825 | 56 | 21 | 1.0 | 3.0 | 0.01 | 0.01 | 0.01 | 84 | 1009.8 |
| 20260509123332 | 56 | 21 | 1.0 | 3.0 | 0.01 | 0.01 | 0.01 | 84 | 1009.8 |
| 20260509122843 | 56 | 21 | 0.0 | 4.0 | 0.01 | 0.01 | 0.01 | 83 | 1009.9 |
| 20260509122327 | 56 | 360 | 2.0 | 4.0 | 0.01 | 0.01 | 0.01 | 82 | 1010.0 |
| 20260509121852 | 56 | 348 | 3.0 | 4.0 | 0.01 | 0.01 | 0.01 | 82 | 1010.0 |
| 20260509121354 | 56 | 360 | 3.0 | 4.0 | 0.01 | 0.01 | 0.01 | 82 | 1010.0 |
| 20260509120841 | 56 | 15 | 2.0 | 4.0 | 0.01 | 0.01 | 0.01 | 82 | 1010.0 |
| 20260509120345 | 56 | 15 | 1.0 | 4.0 | 0.01 | 0.01 | 0.01 | 82 | 1010.0 |
| 20260509115829 | 56 | 15 | 2.0 | 4.0 | 0.01 | 0.01 | 0.01 | 82 | 1010.2 |
| 20260509115332 | 56 | 26 | 2.0 | 4.0 | 0.00 | 0.00 | 0.00 | 82 | 1010.2 |
| 20260509114857 | 56 | 351 | 2.0 | 5.0 | 0.00 | 0.00 | 0.00 | 83 | 1010.2 |
| 20260509114401 | 56 | 360 | 3.0 | 5.0 | 0.00 | 0.00 | 0.00 | 83 | 1010.0 |
| 20260509113824 | 56 | 322 | 2.0 | 3.0 | 0.00 | 0.00 | 0.00 | 83 | 1010.2 |
| 20260509113332 | 56 | 288 | 0.0 | 2.0 | 0.00 | 0.00 | 0.00 | 83 | 1010.2 |
| 20260509112856 | 56 | 288 | 0.0 | 1.0 | 0.00 | 0.00 | 0.00 | 83 | 1010.3 |
| 20260509112339 | 55 | 9 | 0.0 | 1.0 | 0.00 | 0.00 | 0.00 | 82 | 1010.1 |
| 20260509111904 | 55 | 9 | 0.0 | 1.0 | 0.00 | 0.00 | 0.00 | 82 | 1010.1 |
| 20260509111327 | 55 | 9 | 0.0 | 1.0 | 0.00 | 0.00 | 0.00 | 81 | 1009.9 |
| 20260509110834 | 55 | 9 | 0.0 | 2.0 | 0.00 | 0.00 | 0.00 | 81 | 1010.0 |
| 20260509110342 | 55 | 9 | 1.0 | 2.0 | 0.00 | 0.00 | 0.00 | 81 | 1009.7 |
| 20260509105847 | 55 | 9 | 0.0 | 2.0 | 0.00 | 0.00 | 0.00 | 81 | 1009.6 |
| 20260509105329 | 55 | 9 | 1.0 | 2.0 | 0.00 | 0.00 | 0.00 | 81 | 1009.3 |
| 20260509104834 | 55 | 9 | 0.0 | 2.0 | 0.00 | 0.00 | 0.00 | 81 | 1009.6 |
| 20260509104338 | 55 | 9 | 0.0 | 3.0 | 0.00 | 0.00 | 0.00 | 81 | 1009.6 |
| 20260509103843 | 55 | 9 | 2.0 | 3.0 | 0.00 | 0.00 | 0.00 | 81 | 1009.4 |
| 20260509103327 | 54 | 11 | 2.0 | 3.0 | 0.00 | 0.00 | 0.00 | 84 | 1009.3 |
| 20260509102831 | 54 | 11 | 0.0 | 1.0 | 0.00 | 0.00 | 0.00 | 85 | 1009.3 |
| 20260509102358 | 54 | 11 | 1.0 | 2.0 | 0.00 | 0.00 | 0.00 | 85 | 1009.3 |
| 20260509101841 | 54 | 11 | 0.0 | 3.0 | 0.00 | 0.00 | 0.00 | 85 | 1009.5 |
| 20260509101326 | 54 | 11 | 2.0 | 3.0 | 0.00 | 0.00 | 0.00 | 85 | 1009.4 |
| 20260509100834 | 54 | 11 | 1.0 | 2.0 | 0.00 | 0.00 | 0.00 | 84 | 1009.2 |
| 20260509100339 | 54 | 11 | 1.0 | 2.0 | 0.00 | 0.00 | 0.00 | 83 | 1009.1 |
| 20260509095827 | 54 | 11 | 1.0 | 2.0 | 0.00 | 0.00 | 0.00 | 82 | 1009.0 |
| 20260509095330 | 54 | 11 | 0.0 | 1.0 | 0.00 | 0.00 | 0.00 | 81 | 1008.8 |
| 20260509094855 | 54 | 11 | 0.0 | 0.0 | 0.00 | 0.00 | 0.00 | 81 | 1008.8 |
| 20260509094338 | 54 | 11 | 0.0 | 0.0 | 0.00 | 0.00 | 0.00 | 81 | 1008.7 |
| 20260509093902 | 54 | 11 | 0.0 | 1.0 | 0.00 | 0.00 | 0.00 | 81 | 1008.7 |
| 20260509093328 | 54 | 11 | 0.0 | 1.0 | 0.00 | 0.00 | 0.00 | 81 | 1008.7 |
| 20260509092833 | 54 | 11 | 0.0 | 2.0 | 0.00 | 0.00 | 0.00 | 82 | 1008.8 |
| 20260509092357 | 54 | 11 | 1.0 | 2.0 | 0.00 | 0.00 | 0.00 | 81 | 1008.9 |
| 20260509091822 | 54 | 11 | 0.0 | 0.0 | 0.00 | 0.00 | 0.00 | 81 | 1008.9 |
| 20260509091330 | 54 | 11 | 0.0 | 0.0 | 0.00 | 0.00 | 0.00 | 81 | 1008.9 |
| 20260509090834 | 54 | 11 | 0.0 | 0.0 | 0.00 | 0.00 | 0.00 | 81 | 1008.8 |
| 20260509090343 | 54 | 11 | 0.0 | 0.0 | 0.00 | 0.00 | 0.00 | 81 | 1008.8 |
| 20260509085827 | 54 | 11 | 0.0 | 0.0 | 0.00 | 0.00 | 0.00 | 81 | 1008.9 |
| 20260509085331 | 54 | 11 | 0.0 | 0.0 | 0.00 | 0.00 | 0.00 | 81 | 1008.9 |
| 20260509084854 | 54 | 11 | 0.0 | 0.0 | 0.00 | 0.00 | 0.00 | 81 | 1008.9 |
| 20260509084341 | 54 | 11 | 0.0 | 0.0 | 0.00 | 0.00 | 0.00 | 81 | 1009.0 |
| 20260509083846 | 54 | 11 | 0.0 | 1.0 | 0.00 | 0.00 | 0.00 | 82 | 1009.0 |
| 20260509083328 | 54 | 11 | 0.0 | 1.0 | 0.00 | 0.00 | 0.00 | 82 | 1009.0 |
| 20260509082836 | 54 | 11 | 0.0 | 1.0 | 0.00 | 0.00 | 0.00 | 82 | 1009.0 |
| 20260509082339 | 54 | 11 | 0.0 | 1.0 | 0.00 | 0.00 | 0.00 | 82 | 1009.1 |
| 20260509081844 | 54 | 11 | 0.0 | 1.0 | 0.00 | 0.00 | 0.00 | 82 | 1009.1 |
| 20260509081328 | 54 | 11 | 0.0 | 1.0 | 0.00 | 0.00 | 0.00 | 82 | 1009.0 |
| 20260509080833 | 54 | 11 | 0.0 | 1.0 | 0.00 | 0.00 | 0.00 | 83 | 1009.2 |
| 20260509080401 | 54 | 11 | 0.0 | 1.0 | 0.00 | 0.00 | 0.00 | 82 | 1009.1 |
| 20260509075828 | 54 | 11 | 0.0 | 1.0 | 0.00 | 0.00 | 0.00 | 82 | 1009.1 |
| 20260509075332 | 54 | 11 | 0.0 | 0.0 | 0.00 | 0.00 | 0.00 | 81 | 1009.0 |
| 20260509074836 | 54 | 11 | 0.0 | 0.0 | 0.00 | 0.00 | 0.00 | 81 | 1009.0 |
| 20260509074341 | 54 | 11 | 0.0 | 1.0 | 0.00 | 0.00 | 0.00 | 81 | 1009.0 |
| 20260509073825 | 55 | 12 | 0.0 | 1.0 | 0.00 | 0.00 | 0.00 | 80 | 1009.0 |
| 20260509073330 | 55 | 11 | 0.0 | 1.0 | 0.00 | 0.00 | 0.00 | 80 | 1009.0 |
| 20260509072835 | 55 | 11 | 0.0 | 1.0 | 0.00 | 0.00 | 0.00 | 79 | 1009.1 |
| 20260509072358 | 55 | 11 | 0.0 | 1.0 | 0.00 | 0.00 | 0.00 | 79 | 1009.0 |
| 20260509071902 | 55 | 11 | 0.0 | 1.0 | 0.00 | 0.00 | 0.00 | 79 | 1008.9 |
| 20260509071325 | 55 | 11 | 0.0 | 2.0 | 0.00 | 0.00 | 0.00 | 78 | 1009.2 |
| 20260509070830 | 55 | 11 | 0.0 | 2.0 | 0.00 | 0.00 | 0.00 | 78 | 1009.1 |
| 20260509070334 | 55 | 11 | 0.0 | 3.0 | 0.00 | 0.00 | 0.00 | 79 | 1009.2 |
| 20260509065826 | 55 | 11 | 0.0 | 4.0 | 0.00 | 0.00 | 0.00 | 79 | 1009.2 |
| 20260509065329 | 55 | 340 | 2.0 | 4.0 | 0.00 | 0.00 | 0.00 | 79 | 1009.3 |
| 20260509064834 | 55 | 340 | 2.0 | 3.0 | 0.00 | 0.00 | 0.00 | 80 | 1009.4 |
| 20260509064339 | 54 | 340 | 2.0 | 3.0 | 0.00 | 0.00 | 0.00 | 80 | 1009.3 |
| 20260509063825 | 55 | 340 | 1.0 | 2.0 | 0.00 | 0.00 | 0.00 | 79 | 1009.3 |
| 20260509063352 | 55 | 340 | 1.0 | 2.0 | 0.00 | 0.00 | 0.00 | 78 | 1009.3 |
| 20260509062840 | 55 | 340 | 1.0 | 2.0 | 0.00 | 0.00 | 0.00 | 77 | 1009.1 |
| 20260509062343 | 55 | 340 | 0.0 | 1.0 | 0.00 | 0.00 | 0.00 | 77 | 1009.1 |
| 20260509061828 | 55 | 340 | 0.0 | 1.0 | 0.00 | 0.00 | 0.00 | 76 | 1009.1 |
| 20260509061332 | 55 | 340 | 0.0 | 1.0 | 0.00 | 0.00 | 0.00 | 77 | 1009.1 |
| 20260509060837 | 55 | 340 | 0.0 | 1.0 | 0.00 | 0.00 | 0.00 | 76 | 1009.2 |
| 20260509060325 | 55 | 340 | 0.0 | 1.0 | 0.00 | 0.00 | 0.00 | 76 | 1009.2 |
| 20260509055830 | 56 | 340 | 0.0 | 1.0 | 0.00 | 0.00 | 0.00 | 76 | 1009.3 |
| 20260509055354 | 56 | 340 | 0.0 | 1.0 | 0.00 | 0.00 | 0.00 | 75 | 1009.3 |
| 20260509054857 | 56 | 340 | 0.0 | 0.0 | 0.00 | 0.00 | 0.00 | 75 | 1009.4 |
| 20260509054341 | 56 | 340 | 0.0 | 1.0 | 0.00 | 0.00 | 0.00 | 75 | 1009.5 |
| 20260509053825 | 56 | 340 | 0.0 | 2.0 | 0.00 | 0.00 | 0.00 | 75 | 1009.4 |
| 20260509053329 | 56 | 340 | 0.0 | 2.0 | 0.00 | 0.00 | 0.00 | 75 | 1009.6 |
| 20260509052836 | 56 | 340 | 0.0 | 2.0 | 0.00 | 0.00 | 0.00 | 75 | 1009.5 |
| 20260509052342 | 56 | 340 | 0.0 | 2.0 | 0.00 | 0.00 | 0.00 | 74 | 1009.6 |
| 20260509051826 | 56 | 340 | 1.0 | 2.0 | 0.00 | 0.00 | 0.00 | 75 | 1009.5 |
| 20260509051331 | 56 | 340 | 1.0 | 2.0 | 0.00 | 0.00 | 0.00 | 75 | 1009.5 |
| 20260509050834 | 56 | 340 | 1.0 | 3.0 | 0.00 | 0.00 | 0.00 | 76 | 1009.6 |
| 20260509050326 | 56 | 340 | 1.0 | 3.0 | 0.00 | 0.00 | 0.00 | 76 | 1009.6 |
| 20260509045830 | 57 | 340 | 2.0 | 4.0 | 0.00 | 0.00 | 0.00 | 75 | 1009.6 |
| 20260509045357 | 57 | 340 | 2.0 | 4.0 | 0.00 | 0.00 | 0.00 | 75 | 1009.6 |
| 20260509044841 | 57 | 340 | 2.0 | 2.0 | 0.00 | 0.00 | 0.00 | 73 | 1009.3 |
| 20260509044325 | 57 | 340 | 0.0 | 1.0 | 0.00 | 0.00 | 0.00 | 71 | 1009.3 |
| 20260509043853 | 58 | 340 | 0.0 | 2.0 | 0.00 | 0.00 | 0.00 | 71 | 1009.4 |
| 20260509043338 | 58 | 340 | 1.0 | 2.0 | 0.00 | 0.00 | 0.00 | 70 | 1009.4 |
| 20260509042826 | 58 | 340 | 0.0 | 1.0 | 0.00 | 0.00 | 0.00 | 67 | 1009.4 |
| 20260509042330 | 58 | 340 | 0.0 | 1.0 | 0.00 | 0.00 | 0.00 | 68 | 1009.5 |
| 20260509041834 | 58 | 340 | 0.0 | 1.0 | 0.00 | 0.00 | 0.00 | 68 | 1009.6 |
| 20260509041339 | 58 | 340 | 0.0 | 1.0 | 0.00 | 0.00 | 0.00 | 68 | 1009.8 |
| 20260509040903 | 58 | 340 | 0.0 | 1.0 | 0.00 | 0.00 | 0.00 | 68 | 1009.8 |
| 20260509040331 | 58 | 340 | 0.0 | 1.0 | 0.00 | 0.00 | 0.00 | 68 | 1009.8 |
| 20260509035836 | 58 | 340 | 0.0 | 1.0 | 0.00 | 0.00 | 0.00 | 67 | 1009.8 |
| 20260509035338 | 58 | 340 | 0.0 | 1.0 | 0.00 | 0.00 | 0.00 | 67 | 1010.0 |
| 20260509034824 | 58 | 340 | 0.0 | 3.0 | 0.00 | 0.00 | 0.00 | 67 | 1010.0 |
| 20260509034331 | 59 | 340 | 1.0 | 3.0 | 0.00 | 0.00 | 0.00 | 66 | 1010.0 |
| 20260509033839 | 59 | 340 | 0.0 | 4.0 | 0.00 | 0.00 | 0.00 | 64 | 1009.9 |
| 20260509033343 | 59 | 340 | 0.0 | 4.0 | 0.00 | 0.00 | 0.00 | 64 | 1009.9 |
| 20260509032828 | 59 | 339 | 2.0 | 4.0 | 0.00 | 0.00 | 0.00 | 63 | 1010.0 |
| 20260509032331 | 59 | 5 | 0.0 | 4.0 | 0.00 | 0.00 | 0.00 | 64 | 1010.0 |
| 20260509031836 | 58 | 325 | 2.0 | 4.0 | 0.00 | 0.00 | 0.00 | 65 | 1010.0 |
| 20260509031325 | 59 | 325 | 1.0 | 4.0 | 0.00 | 0.00 | 0.00 | 65 | 1010.1 |
| 20260509030829 | 60 | 19 | 0.0 | 1.0 | 0.00 | 0.00 | 0.00 | 63 | 1010.0 |
| 20260509030354 | 60 | 19 | 0.0 | 4.0 | 0.00 | 0.00 | 0.00 | 62 | 1010.0 |
| 20260509025837 | 60 | 21 | 3.0 | 4.0 | 0.00 | 0.00 | 0.00 | 62 | 1010.1 |
| 20260509025341 | 61 | 116 | 0.0 | 3.0 | 0.00 | 0.00 | 0.00 | 59 | 1010.1 |
| 20260509024826 | 61 | 116 | 0.0 | 2.0 | 0.00 | 0.00 | 0.00 | 59 | 1010.0 |
| 20260509024329 | 61 | 116 | 0.0 | 2.0 | 0.00 | 0.00 | 0.00 | 59 | 1010.0 |
| 20260509023837 | 61 | 135 | 1.0 | 2.0 | 0.00 | 0.00 | 0.00 | 60 | 1010.0 |
| 20260509023341 | 61 | 114 | 1.0 | 3.0 | 0.00 | 0.00 | 0.00 | 60 | 1010.0 |
| 20260509022826 | 61 | 112 | 1.0 | 3.0 | 0.00 | 0.00 | 0.00 | 61 | 1010.2 |
| 20260509022329 | 61 | 90 | 0.0 | 0.0 | 0.00 | 0.00 | 0.00 | 60 | 1010.2 |
| 20260509021834 | 60 | 90 | 0.0 | 0.0 | 0.00 | 0.00 | 0.00 | 60 | 1010.4 |
| 20260509021343 | 60 | 90 | 0.0 | 0.0 | 0.00 | 0.00 | 0.00 | 60 | 1010.3 |
| 20260509020827 | 60 | 90 | 0.0 | 0.0 | 0.00 | 0.00 | 0.00 | 60 | 1010.3 |
| 20260509020332 | 60 | 90 | 0.0 | 0.0 | 0.00 | 0.00 | 0.00 | 59 | 1010.2 |
| 20260509015835 | 60 | 90 | 0.0 | 0.0 | 0.00 | 0.00 | 0.00 | 59 | 1010.0 |
| 20260509015342 | 61 | 90 | 0.0 | 0.0 | 0.00 | 0.00 | 0.00 | 59 | 1010.0 |
| 20260509014826 | 61 | 90 | 0.0 | 0.0 | 0.00 | 0.00 | 0.00 | 58 | 1010.1 |
| 20260509014331 | 61 | 90 | 0.0 | 0.0 | 0.00 | 0.00 | 0.00 | 58 | 1010.2 |
| 20260509013835 | 61 | 90 | 0.0 | 0.0 | 0.00 | 0.00 | 0.00 | 57 | 1010.1 |
| 20260509013340 | 61 | 90 | 0.0 | 0.0 | 0.00 | 0.00 | 0.00 | 57 | 1010.1 |
| 20260509012905 | 61 | 90 | 0.0 | 0.0 | 0.00 | 0.00 | 0.00 | 57 | 1010.1 |
| 20260509012327 | 61 | 90 | 0.0 | 0.0 | 0.00 | 0.00 | 0.00 | 57 | 1010.1 |
| 20260509011834 | 61 | 90 | 0.0 | 1.0 | 0.00 | 0.00 | 0.00 | 57 | 1010.1 |
| 20260509011402 | 61 | 90 | 0.0 | 1.0 | 0.00 | 0.00 | 0.00 | 57 | 1010.1 |
| 20260509010848 | 61 | 90 | 0.0 | 2.0 | 0.00 | 0.00 | 0.00 | 57 | 1009.9 |
| 20260509010334 | 61 | 90 | 0.0 | 2.0 | 0.00 | 0.00 | 0.00 | 58 | 1009.8 |
| 20260509005902 | 62 | 348 | 0.0 | 1.0 | 0.00 | 0.00 | 0.00 | 58 | 1009.8 |
| 20260509005405 | 62 | 348 | 0.0 | 2.0 | 0.00 | 0.00 | 0.00 | 56 | 1009.7 |
| 20260509004828 | 62 | 348 | 1.0 | 2.0 | 0.00 | 0.00 | 0.00 | 56 | 1009.8 |
| 20260509004333 | 62 | 348 | 0.0 | 1.0 | 0.00 | 0.00 | 0.00 | 55 | 1009.7 |
| 20260509003837 | 62 | 348 | 0.0 | 1.0 | 0.00 | 0.00 | 0.00 | 54 | 1009.8 |
| 20260509003341 | 62 | 348 | 0.0 | 1.0 | 0.00 | 0.00 | 0.00 | 55 | 1009.8 |
| 20260509002828 | 62 | 348 | 0.0 | 1.0 | 0.00 | 0.00 | 0.00 | 55 | 1009.8 |
| 20260509002332 | 62 | 348 | 0.0 | 1.0 | 0.00 | 0.00 | 0.00 | 54 | 1009.8 |
| 20260509001837 | 62 | 348 | 0.0 | 1.0 | 0.00 | 0.00 | 0.00 | 53 | 1009.8 |
| 20260509001401 | 63 | 348 | 0.0 | 1.0 | 0.00 | 0.00 | 0.00 | 54 | 1009.6 |
| 20260509000843 | 64 | 348 | 0.0 | 1.0 | 0.00 | 0.00 | 0.00 | 52 | 1009.6 |
| 20260509000334 | 64 | 348 | 0.0 | 1.0 | 0.00 | 0.00 | 0.00 | 51 | 1009.7 |
| 20260508235839 | 65 | 348 | 0.0 | 1.0 | 0.00 | 0.00 | 0.00 | 51 | 1009.7 |
| 20260508235325 | 66 | 348 | 0.0 | 1.0 | 0.00 | 0.00 | 0.00 | 48 | 1009.8 |
| 20260508234850 | 66 | 348 | 0.0 | 1.0 | 0.00 | 0.00 | 0.00 | 47 | 1009.7 |
| 20260508234333 | 67 | 348 | 0.0 | 2.0 | 0.00 | 0.00 | 0.00 | 46 | 1009.6 |
| 20260508233841 | 67 | 348 | 0.0 | 3.0 | 0.00 | 0.00 | 0.00 | 45 | 1009.4 |
| 20260508233345 | 67 | 348 | 1.0 | 3.0 | 0.00 | 0.00 | 0.00 | 45 | 1009.4 |
| 20260508232829 | 67 | 348 | 1.0 | 5.0 | 0.00 | 0.00 | 0.00 | 47 | 1009.3 |
| 20260508232332 | 67 | 336 | 3.0 | 5.0 | 0.00 | 0.00 | 0.00 | 47 | 1009.2 |
| 20260508231839 | 68 | 320 | 3.0 | 4.0 | 0.00 | 0.00 | 0.00 | 47 | 1009.3 |
| 20260508231404 | 68 | 319 | 3.0 | 5.0 | 0.00 | 0.00 | 0.00 | 44 | 1009.4 |
| 20260508230827 | 68 | 302 | 2.0 | 5.0 | 0.00 | 0.00 | 0.00 | 47 | 1009.5 |
| 20260508230332 | 68 | 313 | 3.0 | 7.0 | 0.00 | 0.00 | 0.00 | 47 | 1009.5 |
| 20260508225841 | 69 | 288 | 4.0 | 7.0 | 0.00 | 0.00 | 0.00 | 45 | 1009.6 |
| 20260508225344 | 69 | 275 | 3.0 | 5.0 | 0.00 | 0.00 | 0.00 | 46 | 1009.6 |
| 20260508224829 | 68 | 281 | 3.0 | 6.0 | 0.00 | 0.00 | 0.00 | 45 | 1009.6 |
| 20260508224333 | 68 | 284 | 2.0 | 6.0 | 0.00 | 0.00 | 0.00 | 45 | 1009.5 |
| 20260508223838 | 68 | 281 | 3.0 | 7.0 | 0.00 | 0.00 | 0.00 | 43 | 1009.4 |
| 20260508223325 | 68 | 273 | 4.0 | 9.0 | 0.00 | 0.00 | 0.00 | 42 | 1009.6 |
| 20260508222830 | 68 | 254 | 4.0 | 9.0 | 0.00 | 0.00 | 0.00 | 41 | 1009.7 |
| 20260508222334 | 68 | 312 | 4.0 | 7.0 | 0.00 | 0.00 | 0.00 | 43 | 1009.7 |
| 20260508221858 | 68 | 270 | 4.0 | 7.0 | 0.00 | 0.00 | 0.00 | 43 | 1009.7 |
| 20260508221342 | 68 | 297 | 4.0 | 10.0 | 0.00 | 0.00 | 0.00 | 43 | 1009.7 |
| 20260508220826 | 68 | 281 | 4.0 | 10.0 | 0.00 | 0.00 | 0.00 | 43 | 1009.7 |
| 20260508220335 | 68 | 273 | 6.0 | 10.0 | 0.00 | 0.00 | 0.00 | 42 | 1009.8 |
| 20260508215839 | 68 | 285 | 5.0 | 9.0 | 0.00 | 0.00 | 0.00 | 43 | 1009.7 |
| 20260508215341 | 68 | 265 | 5.0 | 15.0 | 0.00 | 0.00 | 0.00 | 42 | 1009.7 |
| 20260508214829 | 68 | 282 | 8.0 | 15.0 | 0.00 | 0.00 | 0.00 | 41 | 1009.7 |
| 20260508214333 | 68 | 274 | 9.0 | 12.0 | 0.00 | 0.00 | 0.00 | 42 | 1009.8 |
| 20260508213858 | 68 | 298 | 6.0 | 11.0 | 0.00 | 0.00 | 0.00 | 42 | 1009.8 |
| 20260508213341 | 68 | 283 | 6.0 | 12.0 | 0.00 | 0.00 | 0.00 | 42 | 1009.8 |
| 20260508212845 | 68 | 281 | 7.0 | 12.0 | 0.00 | 0.00 | 0.00 | 40 | 1009.8 |
| 20260508212328 | 68 | 254 | 2.0 | 9.0 | 0.00 | 0.00 | 0.00 | 41 | 1009.7 |
| 20260508211833 | 68 | 259 | 5.0 | 12.0 | 0.00 | 0.00 | 0.00 | 40 | 1009.8 |
| 20260508211338 | 68 | 264 | 8.0 | 12.0 | 0.00 | 0.00 | 0.00 | 39 | 1009.7 |
| 20260508210826 | 68 | 304 | 7.0 | 11.0 | 0.00 | 0.00 | 0.00 | 40 | 1009.8 |
| 20260508210331 | 68 | 264 | 4.0 | 13.0 | 0.00 | 0.00 | 0.00 | 42 | 1009.8 |
| 20260508205834 | 69 | 272 | 10.0 | 15.0 | 0.00 | 0.00 | 0.00 | 39 | 1009.8 |
| 20260508205357 | 69 | 256 | 8.0 | 15.0 | 0.00 | 0.00 | 0.00 | 39 | 1009.8 |
| 20260508204822 | 69 | 256 | 4.0 | 11.0 | 0.00 | 0.00 | 0.00 | 39 | 1009.8 |
| 20260508204329 | 68 | 262 | 4.0 | 13.0 | 0.00 | 0.00 | 0.00 | 40 | 1009.8 |
| 20260508203836 | 68 | 271 | 8.0 | 13.0 | 0.00 | 0.00 | 0.00 | 39 | 1009.9 |
| 20260508203341 | 68 | 287 | 6.0 | 12.0 | 0.00 | 0.00 | 0.00 | 39 | 1010.0 |
| 20260508202826 | 68 | 263 | 7.0 | 12.0 | 0.00 | 0.00 | 0.00 | 39 | 1010.0 |
| 20260508202349 | 68 | 267 | 6.0 | 13.0 | 0.00 | 0.00 | 0.00 | 39 | 1010.1 |
| 20260508201853 | 68 | 273 | 9.0 | 15.0 | 0.00 | 0.00 | 0.00 | 38 | 1010.1 |
| 20260508201336 | 68 | 268 | 11.0 | 16.0 | 0.00 | 0.00 | 0.00 | 37 | 1010.1 |
| 20260508200841 | 68 | 275 | 10.0 | 14.0 | 0.00 | 0.00 | 0.00 | 38 | 1010.0 |
| 20260508200329 | 68 | 269 | 7.0 | 14.0 | 0.00 | 0.00 | 0.00 | 37 | 1010.1 |
| 20260508195834 | 69 | 300 | 6.0 | 19.0 | 0.00 | 0.00 | 0.00 | 38 | 1010.1 |
| 20260508195338 | 69 | 247 | 10.0 | 19.0 | 0.00 | 0.00 | 0.00 | 36 | 1010.1 |
| 20260508194842 | 69 | 263 | 6.0 | 16.0 | 0.00 | 0.00 | 0.00 | 37 | 1010.3 |
| 20260508194326 | 70 | 265 | 11.0 | 16.0 | 0.00 | 0.00 | 0.00 | 37 | 1010.2 |
| 20260508193833 | 70 | 278 | 8.0 | 16.0 | 0.00 | 0.00 | 0.00 | 36 | 1010.2 |
| 20260508193341 | 70 | 269 | 6.0 | 12.0 | 0.00 | 0.00 | 0.00 | 38 | 1010.2 |
| 20260508192826 | 70 | 284 | 7.0 | 12.0 | 0.00 | 0.00 | 0.00 | 38 | 1010.2 |
| 20260508192329 | 69 | 262 | 8.0 | 12.0 | 0.00 | 0.00 | 0.00 | 37 | 1010.4 |
| 20260508191852 | 68 | 261 | 3.0 | 6.0 | 0.00 | 0.00 | 0.00 | 39 | 1010.4 |
| 20260508191339 | 68 | 257 | 3.0 | 10.0 | 0.00 | 0.00 | 0.00 | 38 | 1010.4 |
| 20260508190827 | 68 | 258 | 3.0 | 11.0 | 0.00 | 0.00 | 0.00 | 40 | 1010.4 |
| 20260508190335 | 68 | 237 | 5.0 | 11.0 | 0.00 | 0.00 | 0.00 | 38 | 1010.5 |
| 20260508185840 | 68 | 271 | 5.0 | 11.0 | 0.00 | 0.00 | 0.00 | 38 | 1010.7 |
| 20260508185322 | 68 | 247 | 4.0 | 15.0 | 0.00 | 0.00 | 0.00 | 38 | 1010.8 |
| 20260508184829 | 68 | 242 | 5.0 | 15.0 | 0.00 | 0.00 | 0.00 | 37 | 1010.7 |
| 20260508184337 | 68 | 255 | 4.0 | 11.0 | 0.00 | 0.00 | 0.00 | 39 | 1010.8 |
| 20260508183841 | 69 | 157 | 3.0 | 11.0 | 0.00 | 0.00 | 0.00 | 37 | 1010.8 |
| 20260508183346 | 69 | 257 | 5.0 | 11.0 | 0.00 | 0.00 | 0.00 | 38 | 1010.8 |
| 20260508182849 | 68 | 254 | 5.0 | 11.0 | 0.00 | 0.00 | 0.00 | 38 | 1010.7 |
| 20260508182332 | 68 | 245 | 3.0 | 10.0 | 0.00 | 0.00 | 0.00 | 36 | 1010.8 |
| 20260508181836 | 69 | 245 | 6.0 | 11.0 | 0.00 | 0.00 | 0.00 | 36 | 1010.8 |
| 20260508181401 | 70 | 227 | 5.0 | 11.0 | 0.00 | 0.00 | 0.00 | 42 | 1010.9 |
| 20260508180825 | 70 | 238 | 5.0 | 13.0 | 0.00 | 0.00 | 0.00 | 41 | 1010.9 |
| 20260508180333 | 70 | 219 | 6.0 | 13.0 | 0.00 | 0.00 | 0.00 | 38 | 1011.0 |
| 20260508175838 | 70 | 243 | 3.0 | 11.0 | 0.00 | 0.00 | 0.00 | 40 | 1011.1 |
| 20260508175340 | 70 | 233 | 4.0 | 18.0 | 0.00 | 0.00 | 0.00 | 41 | 1011.2 |
| 20260508174827 | 69 | 286 | 7.0 | 18.0 | 0.00 | 0.00 | 0.00 | 42 | 1011.1 |
| 20260508174333 | 69 | 250 | 3.0 | 13.0 | 0.00 | 0.00 | 0.00 | 39 | 1011.2 |
| 20260508173841 | 69 | 261 | 8.0 | 13.0 | 0.00 | 0.00 | 0.00 | 40 | 1011.4 |
| 20260508173326 | 68 | 278 | 9.0 | 13.0 | 0.00 | 0.00 | 0.00 | 42 | 1011.4 |
| 20260508172830 | 68 | 240 | 6.0 | 14.0 | 0.00 | 0.00 | 0.00 | 40 | 1011.4 |
| 20260508172334 | 68 | 215 | 5.0 | 14.0 | 0.00 | 0.00 | 0.00 | 45 | 1011.4 |
| 20260508171838 | 67 | 255 | 5.0 | 15.0 | 0.00 | 0.00 | 0.00 | 44 | 1011.4 |
| 20260508171403 | 67 | 255 | 4.0 | 15.0 | 0.00 | 0.00 | 0.00 | 44 | 1011.5 |
| 20260508170846 | 67 | 263 | 4.0 | 13.0 | 0.00 | 0.00 | 0.00 | 41 | 1011.6 |
| 20260508170333 | 68 | 269 | 6.0 | 16.0 | 0.00 | 0.00 | 0.00 | 39 | 1011.7 |
| 20260508165839 | 68 | 264 | 11.0 | 16.0 | 0.00 | 0.00 | 0.00 | 40 | 1011.9 |
| 20260508165406 | 68 | 248 | 9.0 | 16.0 | 0.00 | 0.00 | 0.00 | 40 | 1012.0 |
| 20260508164849 | 67 | 263 | 5.0 | 11.0 | 0.00 | 0.00 | 0.00 | 46 | 1012.0 |
| 20260508164332 | 66 | 265 | 5.0 | 16.0 | 0.00 | 0.00 | 0.00 | 43 | 1012.1 |
| 20260508163857 | 66 | 272 | 11.0 | 16.0 | 0.00 | 0.00 | 0.00 | 41 | 1012.2 |
| 20260508163340 | 66 | 278 | 9.0 | 13.0 | 0.00 | 0.00 | 0.00 | 43 | 1012.2 |
| 20260508162845 | 65 | 291 | 4.0 | 12.0 | 0.00 | 0.00 | 0.00 | 45 | 1012.3 |
| 20260508162329 | 65 | 265 | 6.0 | 12.0 | 0.00 | 0.00 | 0.00 | 42 | 1012.3 |
| 20260508161833 | 66 | 302 | 8.0 | 12.0 | 0.00 | 0.00 | 0.00 | 43 | 1012.5 |
| 20260508161338 | 65 | 244 | 4.0 | 13.0 | 0.00 | 0.00 | 0.00 | 44 | 1012.4 |
| 20260508160902 | 65 | 256 | 7.0 | 16.0 | 0.00 | 0.00 | 0.00 | 43 | 1012.5 |
| 20260508160329 | 64 | 296 | 11.0 | 16.0 | 0.00 | 0.00 | 0.00 | 42 | 1012.5 |
| 20260508155834 | 64 | 252 | 5.0 | 14.0 | 0.00 | 0.00 | 0.00 | 42 | 1012.6 |
| 20260508155341 | 65 | 240 | 8.0 | 14.0 | 0.00 | 0.00 | 0.00 | 43 | 1012.5 |
| 20260508154828 | 65 | 282 | 3.0 | 12.0 | 0.00 | 0.00 | 0.00 | 42 | 1012.4 |
| 20260508154333 | 65 | 231 | 5.0 | 12.0 | 0.00 | 0.00 | 0.00 | 43 | 1012.6 |
| 20260508153838 | 65 | 273 | 9.0 | 15.0 | 0.00 | 0.00 | 0.00 | 43 | 1012.8 |
| 20260508153402 | 64 | 261 | 8.0 | 15.0 | 0.00 | 0.00 | 0.00 | 43 | 1012.9 |
| 20260508152845 | 64 | 239 | 7.0 | 15.0 | 0.00 | 0.00 | 0.00 | 43 | 1012.8 |
| 20260508152328 | 64 | 256 | 7.0 | 15.0 | 0.00 | 0.00 | 0.00 | 41 | 1012.8 |
| 20260508151833 | 65 | 271 | 10.0 | 14.0 | 0.00 | 0.00 | 0.00 | 42 | 1012.8 |
| 20260508151338 | 65 | 273 | 9.0 | 14.0 | 0.00 | 0.00 | 0.00 | 42 | 1012.8 |
| 20260508150842 | 65 | 261 | 8.0 | 13.0 | 0.00 | 0.00 | 0.00 | 44 | 1013.1 |
| 20260508150326 | 64 | 239 | 7.0 | 14.0 | 0.00 | 0.00 | 0.00 | 44 | 1013.0 |
| 20260508145850 | 64 | 254 | 8.0 | 21.0 | 0.00 | 0.00 | 0.00 | 43 | 1013.0 |
| 20260508145340 | 64 | 265 | 6.0 | 21.0 | 0.00 | 0.00 | 0.00 | 44 | 1013.2 |
| 20260508144843 | 64 | 267 | 4.0 | 15.0 | 0.00 | 0.00 | 0.00 | 47 | 1013.1 |
| 20260508144330 | 63 | 270 | 5.0 | 15.0 | 0.00 | 0.00 | 0.00 | 47 | 1012.9 |
| 20260508143835 | 63 | 266 | 9.0 | 13.0 | 0.00 | 0.00 | 0.00 | 45 | 1013.1 |
| 20260508143339 | 63 | 248 | 4.0 | 13.0 | 0.00 | 0.00 | 0.00 | 50 | 1013.2 |
| 20260508142823 | 63 | 188 | 4.0 | 9.0 | 0.00 | 0.00 | 0.00 | 50 | 1013.3 |
| 20260508142330 | 63 | 194 | 4.0 | 11.0 | 0.00 | 0.00 | 0.00 | 49 | 1013.3 |
| 20260508141835 | 62 | 241 | 5.0 | 11.0 | 0.00 | 0.00 | 0.00 | 47 | 1013.4 |
| 20260508141338 | 62 | 271 | 7.0 | 12.0 | 0.00 | 0.00 | 0.00 | 47 | 1013.3 |
| 20260508140826 | 62 | 256 | 3.0 | 12.0 | 0.00 | 0.00 | 0.00 | 49 | 1013.5 |
| 20260508140331 | 62 | 197 | 3.0 | 7.0 | 0.00 | 0.00 | 0.00 | 47 | 1013.4 |
| 20260508135838 | 62 | 232 | 3.0 | 10.0 | 0.00 | 0.00 | 0.00 | 51 | 1013.4 |
| 20260508135324 | 61 | 239 | 3.0 | 9.0 | 0.00 | 0.00 | 0.00 | 52 | 1013.5 |
| 20260508134829 | 61 | 249 | 3.0 | 9.0 | 0.00 | 0.00 | 0.00 | 50 | 1013.6 |
| 20260508134333 | 61 | 246 | 4.0 | 9.0 | 0.00 | 0.00 | 0.00 | 52 | 1013.6 |
| 20260508133900 | 60 | 242 | 4.0 | 9.0 | 0.00 | 0.00 | 0.00 | 51 | 1013.6 |
| 20260508133344 | 59 | 254 | 6.0 | 11.0 | 0.00 | 0.00 | 0.00 | 51 | 1013.6 |
| 20260508132829 | 59 | 259 | 4.0 | 10.0 | 0.00 | 0.00 | 0.00 | 53 | 1013.6 |
| 20260508132331 | 59 | 296 | 4.0 | 7.0 | 0.00 | 0.00 | 0.00 | 52 | 1013.6 |